TimePDT,TemperatureF,Dew PointF,Humidity,Sea Level PressureIn,VisibilityMPH,Wind Direction,Wind SpeedMPH,Gust SpeedMPH,PrecipitationIn,Events,Conditions,WindDirDegrees,DateUTC
12:53 AM,27.0,12.0,53,29.98,-9999.0,SSW,4.6,-,N/A,,Unknown,210,2013-03-18 07:53:00
1:53 AM,24.1,12.9,62,30.00,-9999.0,Calm,Calm,-,N/A,,Unknown,0,2013-03-18 08:53:00
2:53 AM,27.0,12.9,56,30.01,-9999.0,SSW,8.1,-,N/A,,Unknown,200,2013-03-18 09:53:00
3:53 AM,25.0,12.9,60,29.99,-9999.0,WNW,4.6,-,N/A,,Unknown,290,2013-03-18 10:53:00
4:53 AM,26.1,14.0,60,30.00,-9999.0,SE,5.8,-,N/A,,Unknown,130,2013-03-18 11:53:00
5:53 AM,25.0,14.0,63,30.04,-9999.0,South,3.5,-,N/A,,Unknown,170,2013-03-18 12:53:00
6:53 AM,23.0,12.9,65,30.07,-9999.0,South,4.6,-,N/A,,Unknown,190,2013-03-18 13:53:00
7:53 AM,33.1,16.0,50,30.06,-9999.0,South,5.8,-,N/A,,Unknown,170,2013-03-18 14:53:00
8:53 AM,39.9,12.9,33,30.05,-9999.0,Variable,3.5,-,N/A,,Unknown,0,2013-03-18 15:53:00
9:53 AM,45.0,12.9,27,30.05,-9999.0,Variable,3.5,-,N/A,,Unknown,0,2013-03-18 16:53:00
10:53 AM,46.0,12.0,25,30.04,-9999.0,North,5.8,17.3,N/A,,Unknown,350,2013-03-18 17:53:00
11:53 AM,50.0,10.9,21,30.04,-9999.0,West,8.1,-,N/A,,Unknown,280,2013-03-18 18:53:00
12:53 PM,52.0,9.0,18,30.02,-9999.0,Variable,5.8,16.1,N/A,,Unknown,0,2013-03-18 19:53:00
1:53 PM,54.0,9.0,17,30.01,-9999.0,NW,15.0,21.9,N/A,,Unknown,310,2013-03-18 20:53:00
2:53 PM,55.9,8.1,15,29.97,-9999.0,West,15.0,23.0,N/A,,Unknown,280,2013-03-18 21:53:00
3:53 PM,55.0,9.0,16,29.96,-9999.0,NW,15.0,20.7,N/A,,Unknown,320,2013-03-18 22:53:00
4:53 PM,55.9,9.0,15,29.96,-9999.0,NW,13.8,18.4,N/A,,Unknown,310,2013-03-18 23:53:00
5:53 PM,52.0,10.9,19,29.97,-9999.0,NW,15.0,-,N/A,,Unknown,320,2013-03-19 00:53:00
6:53 PM,48.9,10.0,21,30.01,-9999.0,Calm,Calm,-,N/A,,Unknown,0,2013-03-19 01:53:00
7:53 PM,46.9,14.0,27,29.99,-9999.0,Calm,Calm,-,N/A,,Unknown,0,2013-03-19 02:53:00
8:53 PM,46.0,16.0,30,29.99,-9999.0,North,3.5,-,N/A,,Unknown,10,2013-03-19 03:53:00
9:53 PM,43.0,19.0,38,29.99,-9999.0,Calm,Calm,-,N/A,,Unknown,0,2013-03-19 04:53:00
10:53 PM,41.0,21.0,45,30.01,-9999.0,Calm,Calm,-,N/A,,Unknown,0,2013-03-19 05:53:00
11:53 PM,39.9,21.9,49,30.00,-9999.0,Calm,Calm,-,N/A,,Unknown,0,2013-03-19 06:53:00